Flag for U.S.A. Weather past 2 weeks in Miami, Florida, U.S.A.

Now
72 °F

Partly sunny.


Feels Like: 71 °F
Forecast: 71 / 79 °F
Wind: 6 mph from Southeast

Location: Miami International Airport

Current Time: Dec 22, 2014 at 8:51:22 AM

Latest Report: Dec 22, 2014 at 7:53 AM


Visibility: 10 mi

Pressure: 30.03 "Hg

Humidity: 84%

Dew point: 67 °F

Location of MiamiLocation

Historic Weather in Miami — Graph

°F

Miami temperature yesterday

Maximum temperature yesterday: 79 °F (at 10:53 AM)
Minimum temperature yesterday: 65 °F (at 3:53 AM)
Average temperature yesterday: 72 °F

Past Weeks' High & Low Weather Summary

 TemperatureHumidityPressure
High79 °F (Dec 7, 11:53 AM)94% (Dec 21, 3:53 AM)30.25 "Hg (Dec 21, 3:53 AM)
Low50 °F (Dec 11, 2:53 AM)31% (Dec 14, 1:53 PM)29.98 "Hg (Dec 9, 3:53 PM)
Average67 °F66%30.10 "Hg
* Reported Dec 7 6:53 AM — Dec 22 6:53 AM, Miami, Weather by CustomWeather, © 2014

Note: Actual official high and low records may vary slightly from our data, if they occured in-between our weather recording intervals... More about our weather records

Advertising

Miami weather history for previous 24 hours

 ConditionsComfort  
Time TempWeatherWind HumidityBarometerVisibility
6:53 AM
Dec 22
68 °FPassing clouds.6 mph90%30.01 "Hg10 mi
5:53 AM68 °FPartly cloudy.No wind90%30.02 "Hg10 mi
4:53 AM69 °FPartly cloudy.No wind87%30.02 "Hg10 mi
3:53 AM70 °FMostly cloudy.3 mph84%30.02 "Hg10 mi
2:53 AM67 °FPartly cloudy.3 mph90%30.02 "Hg10 mi
1:53 AM70 °FPassing clouds.No wind84%30.04 "Hg10 mi
12:53 AM72 °FPassing clouds.No wind81%30.04 "Hg10 mi
11:53 PM
Dec 21
72 °FPartly cloudy.3 mph81%30.05 "Hg10 mi
10:53 PM72 °FPassing clouds.6 mph78%30.04 "Hg10 mi
9:53 PM72 °FMostly cloudy.6 mph78%30.05 "Hg10 mi
8:53 PM72 °FMostly cloudy.5 mph78%30.04 "Hg10 mi
7:53 PM73 °FPassing clouds.7 mph76%30.05 "Hg10 mi
6:53 PM74 °FPassing clouds.5 mph71%30.05 "Hg10 mi
5:53 PM74 °FPassing clouds.7 mph71%30.04 "Hg10 mi
4:53 PM75 °FPartly sunny.7 mph69%30.03 "Hg10 mi
3:53 PM76 °FPartly sunny.10 mph64%30.03 "Hg10 mi
2:53 PM77 °FPartly sunny.12 mph62%30.03 "Hg10 mi
1:53 PM78 °FBroken clouds.8 mph62%30.05 "Hg10 mi
12:53 PM78 °FBroken clouds.9 mph62%30.07 "Hg10 mi
11:53 AM78 °FBroken clouds.9 mph62%30.09 "Hg10 mi
10:53 AM79 °FBroken clouds.12 mph62%30.11 "Hg10 mi
9:53 AM77 °FPartly sunny.9 mph66%30.11 "Hg10 mi
8:53 AM73 °FBroken clouds.3 mph79%30.10 "Hg10 mi
Weather by CustomWeather, © 2014

See weather overviewHow to use our weather pages